WZZHJ87 EPKK-EDDH

Flight info

Callsign WZZHJ87
Flight time 1h 17m
Altitude 36000
Route OMFOL T738 LASIS DCT BOLBO DCT ESIKA DCT SOGMA M748 RARUP RARUP3S
Aircraft A321/M-SDE3FGHIRWY/LB1

Departure

Time 2026-04-25 14:51
Airport Kraków John Paul II International Airport (EPKK)

Arrival

Time 2026-04-25 16:09
Airport Hamburg Helmut Schmidt Airport (EDDH)
Time Latitude Longitude Altitude Speed Heading
2026-04-25 14:24 50.07453 19.80471 800 ft 0 kts 106°
2026-04-25 14:43 50.07458 19.80436 813 ft 4 kts 94°
2026-04-25 14:44 50.07457 19.80395 800 ft 4 kts 77°
2026-04-25 14:44 50.07448 19.80356 800 ft 4 kts 61°
2026-04-25 14:44 50.07441 19.80336 800 ft 0 kts 56°
2026-04-25 14:47 50.07473 19.80377 800 ft 12 kts 22°
2026-04-25 14:47 50.07541 19.80412 800 ft 11 kts 18°
2026-04-25 14:48 50.07611 19.80414 800 ft 10 kts 349°
2026-04-25 14:48 50.07684 19.80390 800 ft 11 kts 348°
2026-04-25 14:48 50.07764 19.80363 800 ft 12 kts 348°
2026-04-25 14:48 50.07838 19.80339 800 ft 6 kts 347°
2026-04-25 14:49 50.07843 19.80337 800 ft 0 kts 348°
2026-04-25 14:50 50.07853 19.80334 800 ft 6 kts 348°
2026-04-25 14:50 50.07930 19.80308 800 ft 16 kts 348°
2026-04-25 14:50 50.08013 19.80218 800 ft 15 kts 272°
2026-04-25 14:50 50.08006 19.80162 801 ft 0 kts 258°
2026-04-25 14:51 50.07989 19.80034 801 ft 42 kts 258°
2026-04-25 14:51 50.07877 19.79229 801 ft 108 kts 258°
2026-04-25 14:51 50.07693 19.77835 841 ft 153 kts 262°
2026-04-25 14:51 50.07486 19.76232 1519 ft 145 kts 261°
2026-04-25 14:52 50.07274 19.74719 2117 ft 147 kts 259°
2026-04-25 14:52 50.07048 19.73146 2694 ft 152 kts 261°
2026-04-25 14:52 50.06801 19.71428 2960 ft 173 kts 260°
2026-04-25 14:52 50.06619 19.70136 3120 ft 188 kts 261°
2026-04-25 14:53 50.06217 19.67292 3395 ft 220 kts 259°
2026-04-25 14:53 50.05870 19.64845 3755 ft 240 kts 259°
2026-04-25 14:53 50.05507 19.62273 4507 ft 246 kts 259°
2026-04-25 14:53 50.05136 19.59655 5316 ft 249 kts 259°
2026-04-25 14:54 50.04762 19.57014 6115 ft 251 kts 261°
2026-04-25 14:54 50.04380 19.54346 6863 ft 254 kts 262°
2026-04-25 14:54 50.03995 19.51641 7589 ft 258 kts 261°
2026-04-25 14:54 50.03607 19.48900 8349 ft 261 kts 261°
2026-04-25 14:55 50.03215 19.46129 9114 ft 264 kts 262°
2026-04-25 14:55 50.02870 19.43315 9831 ft 265 kts 269°
2026-04-25 14:55 50.02974 19.40449 10441 ft 269 kts 283°
2026-04-25 14:55 50.03606 19.37607 10621 ft 290 kts 294°
2026-04-25 14:56 50.04449 19.34630 10762 ft 312 kts 294°
2026-04-25 14:56 50.05338 19.31483 11182 ft 323 kts 294°
2026-04-25 14:56 50.06244 19.28260 11804 ft 327 kts 294°
2026-04-25 14:56 50.07153 19.25004 12469 ft 330 kts 294°
2026-04-25 14:57 50.08055 19.21757 13159 ft 332 kts 294°
2026-04-25 14:57 50.09023 19.18432 13837 ft 335 kts 295°
2026-04-25 14:57 50.10034 19.15198 14434 ft 338 kts 296°
2026-04-25 14:57 50.11096 19.11915 15045 ft 340 kts 296°
2026-04-25 14:58 50.12174 19.08614 15653 ft 343 kts 296°
2026-04-25 14:58 50.13257 19.05284 16257 ft 346 kts 296°
2026-04-25 14:58 50.14348 19.01907 16868 ft 349 kts 296°
2026-04-25 14:58 50.15438 18.98495 17460 ft 353 kts 296°
2026-04-25 14:59 50.16527 18.95049 18044 ft 356 kts 296°
2026-04-25 14:59 50.17623 18.91572 18572 ft 359 kts 296°
2026-04-25 14:59 50.18728 18.88065 19116 ft 361 kts 296°
2026-04-25 14:59 50.19839 18.84541 19662 ft 363 kts 296°
2026-04-25 15:00 50.20579 18.82191 20025 ft 365 kts 295°
2026-04-25 15:00 50.22079 18.77415 20765 ft 367 kts 295°
2026-04-25 15:00 50.23189 18.73872 21272 ft 369 kts 295°
2026-04-25 15:00 50.24320 18.70263 21791 ft 371 kts 295°
2026-04-25 15:01 50.25458 18.66630 22270 ft 373 kts 295°
2026-04-25 15:01 50.26605 18.62967 22765 ft 376 kts 295°
2026-04-25 15:01 50.27752 18.59293 23242 ft 378 kts 295°
2026-04-25 15:01 50.28906 18.55584 23674 ft 380 kts 295°
2026-04-25 15:02 50.30063 18.51862 24075 ft 382 kts 295°
2026-04-25 15:02 50.31224 18.48123 24483 ft 383 kts 295°
2026-04-25 15:02 50.32391 18.44362 24891 ft 384 kts 295°
2026-04-25 15:02 50.33561 18.40591 25302 ft 386 kts 295°
2026-04-25 15:03 50.34734 18.36805 25715 ft 388 kts 295°
2026-04-25 15:03 50.35912 18.32990 26050 ft 391 kts 295°
2026-04-25 15:03 50.37096 18.29147 26403 ft 393 kts 295°
2026-04-25 15:03 50.38286 18.25277 26764 ft 395 kts 295°
2026-04-25 15:04 50.39482 18.21386 27113 ft 397 kts 295°
2026-04-25 15:04 50.40685 18.17463 27466 ft 400 kts 295°
2026-04-25 15:04 50.41891 18.13527 27798 ft 402 kts 295°
2026-04-25 15:04 50.43102 18.09564 28139 ft 404 kts 295°
2026-04-25 15:05 50.44317 18.05584 28480 ft 406 kts 295°
2026-04-25 15:05 50.45538 18.01579 28824 ft 408 kts 295°
2026-04-25 15:05 50.46762 17.97561 29153 ft 410 kts 295°
2026-04-25 15:06 50.49207 17.89505 29901 ft 412 kts 295°
2026-04-25 15:06 50.50440 17.85433 30253 ft 412 kts 295°
2026-04-25 15:06 50.51671 17.81360 30581 ft 413 kts 295°
2026-04-25 15:06 50.52902 17.77286 30936 ft 412 kts 295°
2026-04-25 15:07 50.54128 17.73219 31300 ft 411 kts 295°
2026-04-25 15:07 50.55346 17.69157 31672 ft 411 kts 295°
2026-04-25 15:07 50.56561 17.65098 32055 ft 410 kts 295°
2026-04-25 15:07 50.57773 17.61050 32410 ft 409 kts 295°
2026-04-25 15:08 50.58984 17.57009 32785 ft 408 kts 295°
2026-04-25 15:08 50.60192 17.52976 33168 ft 407 kts 295°
2026-04-25 15:08 50.61396 17.48949 33524 ft 406 kts 295°
2026-04-25 15:08 50.62593 17.44931 33903 ft 404 kts 295°
2026-04-25 15:09 50.63783 17.40936 34239 ft 402 kts 295°
2026-04-25 15:09 50.64969 17.36948 34547 ft 401 kts 295°
2026-04-25 15:09 50.67323 17.28990 35114 ft 400 kts 294°
2026-04-25 15:10 50.68499 17.25005 35390 ft 400 kts 294°
2026-04-25 15:10 50.69670 17.21034 35670 ft 399 kts 294°
2026-04-25 15:10 50.72005 17.13078 35928 ft 399 kts 294°
2026-04-25 15:11 50.73166 17.09110 35925 ft 398 kts 294°
2026-04-25 15:11 50.75486 17.01177 35921 ft 398 kts 294°
2026-04-25 15:12 50.78966 16.89277 35928 ft 398 kts 294°
2026-04-25 15:12 50.80496 16.84021 35928 ft 398 kts 294°
2026-04-25 15:13 50.84728 16.69380 35967 ft 398 kts 294°
2026-04-25 15:14 50.86637 16.62740 35955 ft 399 kts 294°
2026-04-25 15:14 50.89302 16.53449 35957 ft 398 kts 294°
2026-04-25 15:15 50.91591 16.45457 35961 ft 398 kts 294°
2026-04-25 15:15 50.93487 16.38811 35964 ft 398 kts 294°
2026-04-25 15:16 50.95757 16.30815 35958 ft 398 kts 294°
2026-04-25 15:16 50.99155 16.18800 35960 ft 397 kts 294°
2026-04-25 15:17 51.02536 16.06795 35969 ft 397 kts 294°
2026-04-25 15:18 51.04782 15.98787 35969 ft 397 kts 294°
2026-04-25 15:18 51.08141 15.86769 35974 ft 397 kts 294°
2026-04-25 15:19 51.09995 15.80100 35963 ft 397 kts 294°
2026-04-25 15:19 51.12596 15.70702 35972 ft 397 kts 294°
2026-04-25 15:20 51.14820 15.62636 35970 ft 398 kts 294°
2026-04-25 15:20 51.17043 15.54548 35980 ft 398 kts 294°
2026-04-25 15:21 51.19264 15.46445 35978 ft 399 kts 293°
2026-04-25 15:21 51.21474 15.38332 35974 ft 399 kts 294°
2026-04-25 15:22 51.23673 15.30254 35981 ft 399 kts 294°
2026-04-25 15:22 51.25886 15.22126 35988 ft 399 kts 294°
2026-04-25 15:23 51.28087 15.13987 35994 ft 399 kts 293°
2026-04-25 15:23 51.30287 15.05839 35996 ft 399 kts 294°
2026-04-25 15:24 51.32476 14.97697 36007 ft 399 kts 293°
2026-04-25 15:24 51.34281 14.90944 35957 ft 397 kts 294°
2026-04-25 15:25 51.36806 14.81443 35973 ft 397 kts 293°
2026-04-25 15:25 51.38971 14.73299 35977 ft 398 kts 293°
2026-04-25 15:26 51.41135 14.65140 35988 ft 398 kts 293°
2026-04-25 15:26 51.43288 14.56980 35988 ft 398 kts 293°
2026-04-25 15:27 51.45435 14.48800 35992 ft 398 kts 293°
2026-04-25 15:28 51.48648 14.36500 35995 ft 398 kts 293°
2026-04-25 15:28 51.50769 14.28361 35992 ft 398 kts 293°
2026-04-25 15:29 51.52902 14.20144 36000 ft 398 kts 293°
2026-04-25 15:29 51.55028 14.11927 36001 ft 398 kts 293°
2026-04-25 15:30 51.57147 14.03698 36005 ft 398 kts 293°
2026-04-25 15:30 51.59262 13.95465 36006 ft 398 kts 293°
2026-04-25 15:31 51.61365 13.87240 36003 ft 398 kts 293°
2026-04-25 15:31 51.63468 13.78997 36002 ft 398 kts 293°
2026-04-25 15:32 51.65545 13.70795 36005 ft 398 kts 293°
2026-04-25 15:32 51.68174 13.63016 35987 ft 397 kts 308°
2026-04-25 15:33 51.73334 13.52561 36000 ft 397 kts 308°
2026-04-25 15:33 51.76776 13.45570 36037 ft 398 kts 308°
2026-04-25 15:34 51.80209 13.38579 36030 ft 397 kts 308°
2026-04-25 15:34 51.83057 13.32766 36031 ft 397 kts 308°
2026-04-25 15:35 51.88754 13.21066 36005 ft 396 kts 308°
2026-04-25 15:36 51.93866 13.10523 35985 ft 397 kts 308°
2026-04-25 15:36 51.97278 13.03477 35984 ft 397 kts 308°
2026-04-25 15:37 52.00686 12.96419 35993 ft 397 kts 307°
2026-04-25 15:37 52.04072 12.89384 35997 ft 398 kts 307°
2026-04-25 15:38 52.07472 12.82294 36021 ft 398 kts 307°
2026-04-25 15:38 52.10874 12.75186 36014 ft 398 kts 307°
2026-04-25 15:39 52.14269 12.68079 36013 ft 398 kts 307°
2026-04-25 15:39 52.17656 12.60951 36010 ft 398 kts 307°
2026-04-25 15:40 52.19917 12.56179 36001 ft 397 kts 307°
2026-04-25 15:40 52.24416 12.46682 36016 ft 397 kts 307°
2026-04-25 15:41 52.27783 12.39541 35985 ft 397 kts 307°
2026-04-25 15:41 52.31150 12.32385 36001 ft 397 kts 307°
2026-04-25 15:42 52.34514 12.25206 36000 ft 398 kts 307°
2026-04-25 15:42 52.37874 12.18027 36007 ft 398 kts 307°
2026-04-25 15:43 52.39547 12.14442 35635 ft 392 kts 307°
2026-04-25 15:43 52.41212 12.10868 34316 ft 398 kts 308°
2026-04-25 15:43 52.42888 12.07271 33381 ft 396 kts 308°
2026-04-25 15:43 52.44555 12.03687 32458 ft 394 kts 307°
2026-04-25 15:44 52.46195 12.00157 31568 ft 395 kts 308°
2026-04-25 15:44 52.47859 11.96568 30710 ft 396 kts 307°
2026-04-25 15:44 52.49532 11.92951 29916 ft 399 kts 307°
2026-04-25 15:44 52.51192 11.89357 29461 ft 391 kts 307°
2026-04-25 15:45 52.52821 11.85827 28970 ft 385 kts 307°
2026-04-25 15:45 52.54444 11.82306 28490 ft 378 kts 307°
2026-04-25 15:45 52.56019 11.78888 28015 ft 372 kts 307°
2026-04-25 15:45 52.56525 11.77790 27861 ft 370 kts 307°
2026-04-25 15:46 52.59079 11.72245 27087 ft 361 kts 307°
2026-04-25 15:46 52.60582 11.68976 26631 ft 356 kts 307°
2026-04-25 15:46 52.62059 11.65749 26196 ft 351 kts 307°
2026-04-25 15:46 52.63519 11.62553 25755 ft 347 kts 307°
2026-04-25 15:47 52.64960 11.59396 25317 ft 343 kts 306°
2026-04-25 15:47 52.66387 11.56264 24881 ft 340 kts 307°
2026-04-25 15:47 52.67803 11.53150 24461 ft 338 kts 306°
2026-04-25 15:47 52.69207 11.50056 24061 ft 336 kts 306°
2026-04-25 15:48 52.70602 11.46976 23639 ft 334 kts 306°
2026-04-25 15:48 52.71990 11.43913 23194 ft 331 kts 306°
2026-04-25 15:48 52.73361 11.40890 22798 ft 327 kts 306°
2026-04-25 15:48 52.74708 11.37914 22411 ft 322 kts 306°
2026-04-25 15:49 52.76034 11.34981 22060 ft 316 kts 306°
2026-04-25 15:49 52.77340 11.32092 21703 ft 313 kts 306°
2026-04-25 15:49 52.78639 11.29222 21358 ft 312 kts 306°
2026-04-25 15:49 52.79935 11.26356 21009 ft 310 kts 306°
2026-04-25 15:50 52.81224 11.23501 20659 ft 309 kts 306°
2026-04-25 15:50 52.82501 11.20668 20295 ft 307 kts 306°
2026-04-25 15:50 52.83769 11.17845 19936 ft 305 kts 306°
2026-04-25 15:50 52.85029 11.15027 19557 ft 304 kts 306°
2026-04-25 15:51 52.86287 11.12215 19206 ft 304 kts 306°
2026-04-25 15:51 52.86711 11.11270 19093 ft 303 kts 306°
2026-04-25 15:51 52.88791 11.06630 18474 ft 301 kts 306°
2026-04-25 15:51 52.90034 11.03851 18068 ft 299 kts 306°
2026-04-25 15:52 52.91268 11.01089 17688 ft 297 kts 306°
2026-04-25 15:52 52.92492 10.98347 17287 ft 295 kts 306°
2026-04-25 15:52 52.93705 10.95623 16907 ft 293 kts 306°
2026-04-25 15:52 52.94909 10.92916 16522 ft 291 kts 306°
2026-04-25 15:53 52.96090 10.90257 16116 ft 288 kts 306°
2026-04-25 15:53 52.97274 10.87586 15743 ft 286 kts 306°
2026-04-25 15:53 52.98451 10.84930 15372 ft 284 kts 306°
2026-04-25 15:53 52.99619 10.82297 14987 ft 282 kts 306°
2026-04-25 15:54 53.00779 10.79683 14625 ft 280 kts 305°
2026-04-25 15:54 53.01929 10.77085 14245 ft 278 kts 305°
2026-04-25 15:54 53.03072 10.74496 13878 ft 276 kts 305°
2026-04-25 15:54 53.04205 10.71931 13474 ft 274 kts 305°
2026-04-25 15:55 53.05333 10.69376 13083 ft 274 kts 305°
2026-04-25 15:55 53.06454 10.66833 12713 ft 272 kts 305°
2026-04-25 15:55 53.07567 10.64298 12345 ft 270 kts 305°
2026-04-25 15:55 53.08670 10.61783 11988 ft 269 kts 305°
2026-04-25 15:56 53.09767 10.59281 11623 ft 267 kts 305°
2026-04-25 15:56 53.10854 10.56802 11258 ft 265 kts 305°
2026-04-25 15:56 53.11934 10.54330 10896 ft 263 kts 305°
2026-04-25 15:56 53.13010 10.51870 10542 ft 261 kts 305°
2026-04-25 15:57 53.14059 10.49480 10409 ft 249 kts 305°
2026-04-25 15:57 53.15066 10.47183 10186 ft 242 kts 305°
2026-04-25 15:57 53.16048 10.44931 9953 ft 238 kts 305°
2026-04-25 15:57 53.17015 10.42709 9808 ft 237 kts 305°
2026-04-25 15:58 53.17983 10.40481 9677 ft 237 kts 305°
2026-04-25 15:58 53.18967 10.38275 9549 ft 237 kts 309°
2026-04-25 15:58 53.20170 10.36388 9411 ft 239 kts 320°
2026-04-25 15:58 53.21108 10.35394 9231 ft 243 kts 327°
2026-04-25 15:59 53.22622 10.34130 8825 ft 243 kts 328°
2026-04-25 15:59 53.24626 10.32449 8268 ft 243 kts 328°
2026-04-25 15:59 53.26136 10.31173 7850 ft 243 kts 328°
2026-04-25 15:59 53.27640 10.29896 7461 ft 243 kts 328°
2026-04-25 16:00 53.29140 10.28620 7097 ft 242 kts 328°
2026-04-25 16:00 53.29650 10.28187 6945 ft 243 kts 328°
2026-04-25 16:00 53.31642 10.26496 6551 ft 238 kts 328°
2026-04-25 16:00 53.33096 10.25262 6271 ft 234 kts 328°
2026-04-25 16:01 53.34518 10.24059 6137 ft 224 kts 328°
2026-04-25 16:01 53.35878 10.22907 6008 ft 214 kts 328°
2026-04-25 16:01 53.37166 10.21813 5852 ft 202 kts 327°
2026-04-25 16:01 53.38409 10.20750 5575 ft 201 kts 327°
2026-04-25 16:02 53.39659 10.19677 5034 ft 202 kts 327°
2026-04-25 16:02 53.40904 10.18613 4498 ft 200 kts 328°
2026-04-25 16:02 53.42132 10.17565 3859 ft 198 kts 328°
2026-04-25 16:02 53.43348 10.16523 3491 ft 192 kts 329°
2026-04-25 16:03 53.44480 10.15557 3461 ft 172 kts 329°
2026-04-25 16:03 53.45465 10.14725 3399 ft 146 kts 329°
2026-04-25 16:03 53.46372 10.13946 3335 ft 153 kts 328°
2026-04-25 16:03 53.47334 10.13114 3273 ft 157 kts 329°
2026-04-25 16:04 53.48305 10.12279 3213 ft 157 kts 329°
2026-04-25 16:04 53.49282 10.11440 3132 ft 158 kts 329°
2026-04-25 16:04 53.50256 10.10603 2931 ft 152 kts 329°
2026-04-25 16:04 53.51146 10.09845 2708 ft 139 kts 328°
2026-04-25 16:05 53.51987 10.09123 2514 ft 134 kts 328°
2026-04-25 16:05 53.52808 10.08418 2329 ft 131 kts 328°
2026-04-25 16:05 53.54423 10.07032 1962 ft 130 kts 328°
2026-04-25 16:06 53.55226 10.06344 1788 ft 129 kts 328°
2026-04-25 16:06 53.56014 10.05667 1616 ft 128 kts 327°
2026-04-25 16:06 53.56813 10.04977 1443 ft 129 kts 328°
2026-04-25 16:06 53.57606 10.04293 1279 ft 129 kts 326°
2026-04-25 16:07 53.58404 10.03596 1089 ft 128 kts 326°
2026-04-25 16:07 53.58935 10.03134 962 ft 127 kts 326°
2026-04-25 16:07 53.59992 10.02219 690 ft 129 kts 326°
2026-04-25 16:07 53.60797 10.01540 478 ft 130 kts 326°
2026-04-25 16:08 53.61608 10.00864 315 ft 130 kts 328°
2026-04-25 16:08 53.62414 10.00163 176 ft 129 kts 326°
2026-04-25 16:08 53.63212 9.99477 47 ft 124 kts 327°
2026-04-25 16:08 53.63834 9.98911 41 ft 78 kts 332°
2026-04-25 16:09 53.64161 9.98627 42 ft 28 kts 333°
2026-04-25 16:09 53.64328 9.98484 41 ft 26 kts 333°
2026-04-25 16:09 53.64491 9.98384 38 ft 24 kts 350°
2026-04-25 16:09 53.64626 9.98379 40 ft 14 kts
2026-04-25 16:10 53.64700 9.98426 39 ft 11 kts 51°
2026-04-25 16:10 53.64688 9.98505 40 ft 8 kts 136°
2026-04-25 16:10 53.64635 9.98557 41 ft 10 kts 153°
2026-04-25 16:10 53.64570 9.98612 41 ft 11 kts 153°
2026-04-25 16:11 53.64498 9.98677 41 ft 12 kts 152°
2026-04-25 16:11 53.64418 9.98745 42 ft 13 kts 153°
2026-04-25 16:11 53.64331 9.98819 42 ft 15 kts 153°
2026-04-25 16:11 53.64237 9.98902 42 ft 16 kts 153°
2026-04-25 16:12 53.64136 9.98989 42 ft 17 kts 153°
2026-04-25 16:12 53.64034 9.99077 43 ft 15 kts 152°
2026-04-25 16:12 53.63938 9.99161 43 ft 16 kts 152°
2026-04-25 16:12 53.63869 9.99221 43 ft 17 kts 153°
2026-04-25 16:13 53.63745 9.99390 44 ft 18 kts 129°
2026-04-25 16:13 53.63670 9.99563 45 ft 18 kts 126°
2026-04-25 16:13 53.63605 9.99717 45 ft 17 kts 126°
2026-04-25 16:13 53.63534 9.99879 45 ft 18 kts 126°
2026-04-25 16:14 53.63461 10.00044 44 ft 14 kts 138°
2026-04-25 16:14 53.63387 9.99981 46 ft 14 kts 229°
2026-04-25 16:14 53.63319 9.99848 45 ft 16 kts 230°
2026-04-25 16:14 53.63252 9.99745 45 ft 9 kts 187°
2026-04-25 16:15 53.63190 9.99793 45 ft 11 kts 152°
2026-04-25 16:15 53.63105 9.99865 45 ft 18 kts 154°
2026-04-25 16:15 53.62990 9.99964 44 ft 19 kts 152°
2026-04-25 16:15 53.62866 10.00054 46 ft 20 kts 156°
2026-04-25 16:16 53.62750 10.00154 46 ft 13 kts 153°
2026-04-25 16:16 53.62716 10.00229 46 ft 8 kts 75°
2026-04-25 16:16 53.62738 10.00305 46 ft 3 kts 64°
2026-04-25 16:16 53.62739 10.00308 46 ft 0 kts 64°
2026-04-25 16:19 53.62739 10.00307 46 ft 0 kts 64°